Hourly Data Report for October 12, 2013

All times are specified in Local Standard Time (LST). Add 1 hour to adjust for Daylight Saving Time where and when it is observed.

PANGNIRTUNG
NUNAVUT

66°08'36.300" N
65°42'40.500" W
22.60 m
2403049
71826
WXP

Download Data

Hourly Data (October 2013)
Hourly Data Report for October 12, 2013
Temp Definition
°C
Dew Point Temp Definition
°C
Rel Hum Definition
%
Wind Dir Definition
10's deg

Wind Spd Definition
km/h
Visibility Definition
km
Stn Press Definition
kPa
Hmdx Definition


Wind Chill Definition


Weather Definition


TIME
00:00 -6.0 -11.1 67 13 6   101.80   -9 LegendNANA
01:00 -7.3 -11.1 74 14 6   101.81   -10 LegendNANA
02:00 -7.0 -10.8 74 17 6   101.77   -10 LegendNANA
03:00 -7.0 -11.1 73 22 6   101.75   -10 LegendNANA
04:00 -7.2 -11.2 73 24 6   101.76   -10 LegendNANA
05:00 -6.9 -12.2 66 14 4   101.69   -9 LegendNANA
06:00 -6.9 -11.2 71 21 4   101.75   -9 LegendNANA
07:00 -7.3 -12.4 67 12 17   101.67   -14 LegendNANA
08:00 -6.5 -10.5 73 12 6   101.69   -9 LegendNANA
09:00 -6.5 -10.4 74 14 4   101.64   -8 LegendNANA
10:00 -6.1 -10.4 72 12 6   101.59   -9 LegendNANA
11:00 -4.6 -10.1 65 11 6   101.61   -7 LegendNANA
12:00 -3.9 -10.4 61 24 4   101.58   -6 LegendNANA
13:00 -3.4 -8.9 66 4 6   101.53   -6 LegendNANA
14:00 -3.2 -9.2 63 7 7   101.49   -6 LegendNANA
15:00 -2.9 -7.9 68 25 4   101.53   -4 LegendNANA
16:00 -2.7 -7.2 71 8 4   101.53   -4 LegendNANA
17:00 -2.3 -7.6 67 6 6   101.51   -5 LegendNANA
18:00 -2.1 -7.6 66 11 4   101.48   -4 LegendNANA
19:00 -2.4 -5.9 77 11 6   101.50   -5 LegendNANA
20:00 -3.0 -4.2 91 9 11   101.43   -7 LegendNANA
21:00 -2.1 -3.1 93 10 7   101.35   -5 LegendNANA
22:00 -1.5 -2.1 96 5 6   101.31   -4 LegendNANA
23:00 -1.2 -1.7 96 8 4   101.28   -3 LegendNANA

Notes on Data Quality.

Legend

  • E = Estimated
  • M = Missing
  • NA = Not Available
  • ‡ = Partner data that is not subject to review by the National Climate Archives
Date modified: